This demonstration page uses our WeatherBlox Daily Observations layout. Learn more.

Left ArrowRight Arrow

39.01783, -85.05884

Hourly Observations for August 3, 2022

Temp ( °F °C ) Dew Point ( °F °C ) Humidity (%) Winds ( mph kmh ) Pressure ( in mb ) Visibility ( mi km ) Precip ( " mm )
12:52 am 00:52 Clear 71 21.7 70 21.1 96 96 SSW 7 11 29.98 1015 10 16 0.00 0.00
1:52 am 01:52 Clear 70 21.1 69 20.6 97 97 SSW 6 9 29.96 1015 10 16 0.00 0.00
2:52 am 02:52 Clear 70 21.1 69 20.6 97 97 SSW 6 9 29.96 1014 10 16 0.00 0.00
3:52 am 03:52 Clear 69 20.6 69 20.6 100 100 SSW 6 9 29.96 1015 10 16 0.00 0.00
4:52 am 04:52 Clear 70 21.1 69 20.6 97 97 Calm 29.96 1015 9 14 0.00 0.00
5:52 am 05:52 Clear 70 21.1 69 20.6 97 97 S 3 6 29.96 1014 9 14 0.00 0.00
6:52 am 06:52 Sunny 68 20 68 20 100 100 S 7 11 29.96 1015 7 11 0.00 0.00
7:52 am 07:52 Sunny 72 22.2 71 21.7 97 97 S 8 13 29.97 1015 9 14 0.00 0.00
8:52 am 08:52 Mostly Sunny 76 24.4 72 22.2 88 88 SSW 8 13 29.98 1015 10 16 0.00 0.00
9:52 am 09:52 Mostly Sunny 80 26.7 73 22.8 79 79 SSW 8 13 29.98 1015 10 16 0.00 0.00
10:52 am 10:52 Mostly Sunny 84 28.9 75 23.9 74 74 S 10 17 29.98 1015 10 16 0.00 0.00
11:52 am 11:52 Sunny 86 30 76 24.4 72 72 S 12 19 29.97 1015 9 14 0.00 0.00
12:52 pm 12:52 Mostly Sunny 89 31.7 77 25 68 68 SSW 9 15 29.96 1014 10 16 0.00 0.00
1:52 pm 13:52 Mostly Cloudy 90 32.2 76 24.4 63 63 SSW 16 26 29.96 1014 9 14 0.00 0.00
2:52 pm 14:52 Mostly Cloudy 90 32.2 75 23.9 62 62 SSW 14 22 29.94 1014 9 14 0.00 0.00
3:48 pm 15:48 Partly Cloudy with Nearby Thunderstorms 91 33 73 23 56 56 SSW 16 26 29.91 1013 10 16 0.00 0.00
3:52 pm 15:52 Partly Cloudy with Nearby Thunderstorms 92 33.3 74 23.3 56 56 SSW 12 19 29.93 1014 10 16 0.00 0.00
4:18 pm 16:18 Mostly Cloudy with Nearby Thunderstorms 87 30.6 73 22.8 63 63 W 18 30 29.92 1013 10 16 0.00 0.00
4:47 pm 16:47 Mostly Cloudy with Light Rain 79 26 73 23 84 84 WSW 10 17 29.92 1013 9 14 0.00 0.00
4:52 pm 16:52 Mostly Cloudy with Light Rain 79 26.1 73 22.8 82 82 WSW 10 17 29.93 1013 8 13 0.00 0.00
5:22 pm 17:22 Mostly Cloudy with Nearby Thunderstorms 81 27.2 70 21.1 69 69 WSW 7 11 29.89 1012 10 16 0.00 0.00
5:52 pm 17:52 Mostly Cloudy 79 26.1 69 20.6 72 72 SW 9 15 29.90 1013 10 16 0.00 0.00
6:52 pm 18:52 Mostly Cloudy 82 27.8 71 21.7 69 69 WSW 5 7 29.91 1013 10 16 0.00 0.00
7:52 pm 19:52 Mostly Cloudy 82 27.8 74 23.3 77 77 SW 3 6 29.93 1014 10 16 0.00 0.00
8:52 pm 20:52 Mostly Cloudy 79 26.1 75 23.9 88 88 S 5 7 29.95 1014 10 16 0.00 0.00
9:52 pm 21:52 Mostly Cloudy 79 26.1 74 23.3 85 85 SSW 6 9 29.96 1015 10 16 0.00 0.00
10:52 pm 22:52 Mostly Clear 79 26.1 75 23.9 88 88 S 7 11 29.98 1015 10 16 0.00 0.00
11:52 pm 23:52 Mostly Clear 79 26.1 76 24.4 90 90 SSW 7 11 29.97 1015 10 16 0.00 0.00

Powered by AerisWeather